CZ-6A DEB

Satellite information

Favourite Embed

Satellite Type and Status

DEBRISIN ORBIT

Key statistics

Satellite CZ-6A DEB at a glance.

Uptime

1073

Days in orbit

Revolutions

≈ 14.2

Per day

Orbit

SSO

Sun Synchronous Orbit

Inclination

98.7

Latest

Satellite identification and parameters

Extended collection of information and parameters for CZ-6A DEB.

Object identification

Identified? True

Debris? True

Object name: CZ-6A DEB

International designator: 2022-151ADT

Object number (NORAD): 56595

Object ID (CCSDS): 56595

Country: PEOPLES REPUBLIC OF CHINA (PRC)

Current information (Y/N): Y

RCS size: SMALL

Orbital parameters

Period: 101.377 minutes

Inclination: 98.7276 deg

SMA: 7202.011 km

Apoapsis: 920.517 km

Periapsis: 727.236 km

RAAN: 292.0934 deg

Eccentricy: 0.01341848

Argument of periapsis: 155.4888 deg

Mean anomaly: 205.2747 deg

Mean motion: 14.20437238 rev/day

Mean motion (dot): 0.00001774 rev/day2

B* drag term: 0.00077384384 1/REarth

Two-line elements (TLE)

Creation date: Oct. 19, 2025, 2:20 a.m.

Reference frame: TEME

Reference center: EARTH

Epoch: Oct. 18, 2025, 5:21 p.m. UTC

TLE line 0: 0 CZ-6A DEB

TLE line 1: 1 56595U 22151ADT 25291.72359396 .00001774 00000-0 77384-3 0 9995

TLE line 2: 2 56595 98.7276 292.0934 0134185 155.4888 205.2747 14.20437238128609

Live tracking on map

Real-time ground track for satellite CZ-6A DEB.

In-orbit conjunctions

A list of the most updated potential collisions computed for object CZ-6A DEB.

Target Orbit TCA Probability of collision Miss distance Type
FENGYUN 1C DEB SSO 2025-09-23 10:11:43 0.0001607647 389.0 (m) DEBRIS
IRIDIUM 33 DEB LEO 2024-11-10 07:01:54 0.0007258894 467.0 (m) DEBRIS

Associated space launch

Chinese satellite reported for atmospheric/ocean/environmental/spatial parameter research purposes, details TBD.

CZ-6A DEB was lifted into orbit during the mission ‘Long March 6A | Yunhai 3’, on board a Long March 6A space rocket.

The launch took place on Nov. 11, 2022, 10:52 p.m. from Launch Complex 9A.

For more information about the launch, click the button.

Launch to space Long March 6A | Yunhai 3
Long March 6A | Yunhai 3

Agency: N/A

Status: Launch Successful

Launch date: Nov. 11, 2022, 10:52 p.m. UTC

Rocket: Long March 6A

Launch pad: Launch Complex 9A

Location: Taiyuan Satellite Launch Center, People's Republic of China

...

Latest news about this satellite

There are no fresh news available about this satellite. Check back as we update our databases every day.


Newsletter sign-up

Weekly statistics, charts and insights to help you stay on top of the space industry.